Snowfall_Accumulation
0.0 0.0 0.0 0.0 0.0 0.0 0.0 0.0 0.0 0.0 0.0 0.0 0.0 0.0 0.0 0.0 0.0 0.0 0.0 0.0 0.0 0.0 0.0 0.0 0.0 0.0 0.2 0.2 0.1 0.0 0.0 0.0 1.1 1.5 1.0 0.8 1.5 0.9 0.7 0.6 0.6 0.2 0.3
0.0 0.0 0.0 0.0 0.0 0.0 0.1 0.1 0.1 0.2 0.1 0.1 0.1 0.1 0.1 0.0 0.0 0.1 0.1 0.1 0.1 0.1 0.1 0.1 0.1 0.0 0.1 0.0 0.2 0.0 0.1 0.1 0.9 1.6 1.6 3.2 1.9 1.2 1.1 0.7 0.5 0.2 0.7
0.0 0.0 0.0 0.1 0.3 1.4 2.6 1.5 0.4 1.4 1.5 0.5 0.1 0.1 0.4 0.5 0.4 0.1 0.1 0.1 0.1 0.1 0.1 0.1 0.1 0.1 0.1 0.4 0.2 0.4 0.5 0.1 0.6 1.9 3.3 2.2 3.1 2.3 2.4 2.3 1.6 0.8 0.4
0.1 0.1 0.2 0.4 0.4 1.4 2.9 4.1 4.0 2.4 1.8 1.5 1.1 1.7 1.8 1.6 1.0 1.1 0.3 0.4 0.5 0.3 0.2 0.1 0.1 0.1 0.1 0.1 0.1 0.2 0.2 0.7 0.9 1.6 2.3 2.9 2.6 2.9 2.2 2.7 4.1 3.3 3.3
0.3 1.8 3.7 2.1 1.8 3.2 5.5 5.7 5.0 3.7 3.2 3.6 3.4 2.8 2.2 1.4 0.4 0.4 0.2 0.3 0.3 0.6 0.5 0.2 0.2 0.1 nan nan 0.3 0.3 0.3 0.6 1.2 1.4 1.8 1.8 1.9 2.8 3.0 2.8 4.9 5.2 6.8
2.3 6.6 5.4 5.7 4.9 5.4 8.3 7.7 6.4 5.4 5.6 4.8 3.8 2.9 2.5 0.7 nan nan 0.1 0.2 0.3 0.4 0.6 0.5 0.3 0.2 0.1 nan nan nan nan 0.2 0.5 1.4 1.3 1.0 0.9 1.6 2.1 2.8 4.1 7.1 9.3
6.0 8.0 8.8 10.0 7.6 8.3 7.7 7.5 6.7 5.3 4.3 5.3 4.6 2.4 2.5 1.0 nan nan nan 0.4 0.4 0.5 0.5 0.4 0.5 0.2 0.1 0.1 nan nan nan nan nan 0.1 0.4 0.6 1.3 0.8 0.9 2.3 3.2 4.5 5.5
7.6 9.0 8.9 9.8 7.9 7.0 7.3 7.4 6.8 4.4 5.0 3.5 3.8 3.5 2.6 1.9 nan nan nan 1.4 1.9 2.2 1.1 0.9 0.4 0.3 0.1 0.1 0.1 0.2 0.2 0.3 0.2 0.1 0.2 0.3 0.4 0.5 0.6 0.9 2.9 4.7 6.2
9.4 9.1 9.2 8.0 9.3 8.3 8.4 8.7 5.6 3.2 2.2 3.0 3.3 3.3 2.2 4.1 nan nan 1.9 2.6 2.1 3.1 3.1 2.0 1.6 1.3 nan nan 0.5 1.7 1.6 1.0 nan nan nan nan nan nan nan 3.9 12.4 16.9 11.6
7.4 8.1 8.0 7.7 7.2 8.2 5.6 6.7 6.9 3.4 3.5 2.6 2.8 3.0 1.8 2.8 nan nan nan 1.9 2.2 3.5 4.0 3.9 1.9 1.3 nan nan 2.6 2.7 5.0 4.4 2.5 3.5 2.4 1.7 nan nan nan 1.9 4.2 13.5 10.3
3.8 4.8 5.7 4.9 5.0 4.4 2.9 2.3 2.6 2.9 2.9 3.2 2.9 2.7 3.6 2.3 3.7 nan nan 3.0 4.9 4.5 4.5 5.2 4.5 nan nan nan nan 4.3 4.4 4.6 6.4 5.5 6.7 7.2 5.1 3.6 4.4 4.3 3.8 5.7 11.4
1.8 2.1 2.6 2.7 2.1 2.1 1.5 0.9 1.8 1.2 1.0 2.4 2.3 3.3 2.9 2.5 nan nan nan nan nan 3.7 3.8 4.2 4.7 nan nan nan 3.5 nan nan 3.0 7.3 7.3 6.6 6.8 8.4 7.3 6.4 7.6 7.0 6.4 6.0
1.8 3.5 3.0 2.3 1.9 1.7 1.2 0.6 1.7 0.4 1.4 0.6 2.2 2.4 2.2 2.7 2.0 nan nan nan nan 1.9 1.7 2.6 nan nan nan nan nan nan 1.3 6.1 7.1 8.6 7.4 6.6 5.0 4.4 4.8 6.4 5.2 4.5 4.3
3.7 2.2 1.4 1.5 0.9 0.9 1.5 1.6 2.2 2.3 2.3 2.4 3.0 3.0 2.2 2.2 1.5 1.4 2.2 1.1 0.9 2.2 nan 2.2 nan 1.8 nan nan 2.2 2.7 3.4 4.5 4.5 6.0 6.9 5.3 5.2 7.7 7.9 5.7 6.7 5.8 9.4
3.2 1.5 1.2 1.9 2.2 1.4 1.4 2.0 1.7 0.7 1.8 4.4 5.7 4.4 6.3 6.1 3.4 1.2 4.3 4.8 4.1 4.5 4.8 6.9 6.2 5.0 5.2 4.6 5.3 5.6 5.3 5.5 6.4 6.8 7.8 8.4 8.9 8.3 7.4 5.8 6.4 7.8 10.1
2.4 3.3 2.8 2.8 2.4 2.1 2.2 2.4 nan nan nan nan nan 3.1 4.5 nan nan nan nan nan nan nan 11.6 12.4 7.1 5.8 5.6 6.0 7.7 7.9 7.8 7.2 7.3 8.5 9.9 9.3 10.6 9.6 9.3 9.6 8.9 9.8 10.9
5.0 3.9 4.5 4.0 3.7 3.8 3.8 4.1 6.5 3.5 nan nan nan nan nan nan nan nan nan nan nan nan 18.5 10.5 9.6 7.4 7.8 7.9 8.7 8.2 9.9 8.4 7.0 9.5 9.4 10.0 10.9 11.3 12.0 11.0 9.6 8.8 11.8
5.0 2.1 4.4 4.3 4.0 4.4 4.6 4.7 4.9 6.6 8.4 6.7 nan nan nan nan nan nan nan nan 18.6 nan 13.4 16.3 15.9 13.9 12.7 11.8 10.5 11.0 11.3 11.0 10.3 9.7 10.1 12.5 14.4 15.4 15.4 14.8 11.7 14.1 13.7
6.3 4.9 5.4 5.1 4.7 4.8 5.5 5.1 5.2 6.1 6.6 8.5 9.3 9.0 4.2 nan nan nan nan 12.4 17.7 16.2 16.2 16.4 13.9 14.7 13.6 14.2 13.7 14.8 13.5 14.7 13.6 16.2 16.2 17.2 16.1 17.2 17.4 13.6 12.4 8.0 8.8
8.3 3.7 5.6 8.6 8.2 7.6 6.1 8.1 8.2 8.6 10.0 10.9 11.0 9.9 12.4 12.6 16.2 15.9 13.1 16.9 18.5 17.1 15.4 17.2 17.4 19.2 20.6 19.7 19.3 18.2 19.1 20.1 18.8 18.5 18.2 17.9 17.2 18.0 15.5 18.4 16.6 16.0 16.4
12.6 11.3 3.4 11.5 12.9 13.2 13.4 12.0 11.1 13.8 12.4 13.5 11.5 10.7 nan 16.4 17.8 17.3 18.1 18.8 19.0 20.8 18.5 19.4 20.4 24.9 25.5 27.4 24.7 24.3 23.2 17.0 19.4 20.6 21.1 21.1 20.9 27.3 16.9 13.9 18.0 18.8 18.6
15.2 15.6 15.5 16.7 13.6 14.4 15.9 13.2 14.0 14.1 14.0 13.1 11.4 11.7 nan 15.9 16.9 17.2 19.1 21.5 24.5 24.9 26.0 30.7 29.9 31.2 29.0 28.0 26.3 25.0 22.3 23.9 24.7 23.7 20.6 21.7 24.3 23.1 22.2 18.7 19.0 17.8 20.8
14.5 13.9 14.7 15.0 14.7 7.3 16.1 17.8 17.0 16.7 16.4 17.5 16.4 17.5 19.1 20.8 20.5 21.3 25.6 27.4 24.7 24.3 26.3 27.5 26.3 26.2 24.7 26.3 24.2 23.5 25.0 25.5 25.1 29.9 25.9 25.6 25.6 27.0 25.3 24.3 22.3 25.7 24.0
14.0 14.1 14.1 17.3 16.8 15.9 17.7 18.5 17.1 7.1 17.9 19.1 24.8 22.6 18.2 20.6 25.4 22.1 22.4 24.9 23.1 30.2 25.5 26.5 24.1 23.6 24.1 29.4 33.4 32.7 34.2 35.0 34.3 32.4 31.2 27.0 25.7 21.6 25.0 27.2 23.5 22.5 21.6
17.6 16.8 16.7 16.0 20.3 18.5 17.7 20.1 17.4 21.1 23.0 20.5 22.6 19.7 20.2 19.6 20.2 24.4 23.9 22.5 24.5 23.3 21.8 21.5 21.8 22.0 22.0 22.7 26.8 29.7 27.7 5.1 20.0 5.5 31.2 26.5 28.2 27.6 27.7 25.6 24.2 23.1 21.1
16.0 17.0 17.6 17.9 17.9 18.7 19.1 18.9 19.4 17.4 20.1 20.8 20.5 21.0 19.6 19.9 19.8 21.4 21.0 21.3 19.5 20.2 20.8 21.8 21.9 20.6 19.8 20.3 20.6 7.8 4.9 4.5 25.9 4.9 30.6 29.3 28.7 26.5 26.3 26.3 24.8 24.3 21.3
Water_Equivalent
0.00 0.00 0.00 0.00 0.00 0.00 0.00 0.00 0.00 0.00 0.00 0.01 0.01 0.01 0.01 0.01 0.00 0.00 0.01 0.00 0.01 0.01 0.00 0.00 0.01 0.00 0.08 0.07 0.03 0.00 0.00 0.00 0.27 0.42 0.30 0.25 0.48 0.27 0.28 0.17 0.21 0.06 0.11
0.00 0.00 0.00 0.00 0.00 0.01 0.03 0.03 0.02 0.06 0.02 0.05 0.03 0.04 0.02 0.02 0.01 0.02 0.02 0.02 0.02 0.03 0.03 0.03 0.02 0.00 0.02 0.00 0.09 0.01 0.02 0.03 0.24 0.32 0.43 0.88 0.52 0.33 0.29 0.20 0.14 0.06 0.22
0.00 0.00 0.01 0.03 0.09 0.40 0.75 0.44 0.13 0.50 0.56 0.18 0.05 0.05 0.12 0.16 0.14 0.04 0.03 0.05 0.03 0.03 0.03 0.03 0.04 0.02 0.03 0.13 0.06 0.12 0.15 0.04 0.20 0.51 0.79 0.63 0.84 0.65 0.67 0.70 0.51 0.22 0.13
0.02 0.02 0.05 0.12 0.11 0.41 0.88 1.34 1.30 0.81 0.62 0.51 0.38 0.60 0.61 0.56 0.38 0.41 0.10 0.12 0.15 0.10 0.07 0.04 0.03 0.03 0.03 0.03 0.03 0.04 0.05 0.21 0.27 0.42 0.56 0.67 0.62 0.76 0.61 0.69 0.91 0.75 0.75
0.09 0.51 1.01 0.60 0.53 0.94 1.54 1.60 1.43 1.18 1.02 1.10 0.99 0.78 0.63 0.42 0.11 0.12 0.08 0.09 0.10 0.16 0.15 0.07 0.05 0.02 nan nan 0.10 0.09 0.07 0.15 0.31 0.33 0.39 0.37 0.36 0.53 0.58 0.71 0.98 0.97 1.14
0.61 1.47 1.38 1.55 1.39 1.37 1.89 1.50 1.33 1.13 1.34 1.14 0.91 0.74 0.62 0.21 nan nan 0.05 0.06 0.08 0.10 0.16 0.15 0.10 0.06 0.04 nan nan nan nan 0.06 0.11 0.33 0.31 0.22 0.16 0.34 0.47 0.59 0.73 1.21 1.34
1.33 2.01 2.21 2.24 1.54 1.63 1.55 1.54 1.25 1.02 1.02 1.13 0.88 0.57 0.60 0.26 nan nan nan 0.12 0.11 0.11 0.11 0.09 0.13 0.06 0.03 0.04 nan nan nan nan nan 0.04 0.09 0.13 0.21 0.15 0.16 0.33 0.48 0.72 0.79
1.67 1.85 1.79 1.91 1.50 1.37 1.33 1.25 1.42 1.00 1.20 0.79 0.90 0.79 0.62 0.65 nan nan nan 0.33 0.36 0.42 0.24 0.18 0.09 0.08 0.04 0.03 0.04 0.05 0.04 0.06 0.05 0.03 0.05 0.07 0.08 0.12 0.13 0.18 0.40 0.54 0.88
1.81 1.70 1.69 1.43 1.66 1.38 1.27 1.40 1.00 0.57 0.40 0.55 0.72 0.70 0.47 0.99 nan nan 0.38 0.51 0.39 0.62 0.64 0.50 0.37 0.28 nan nan 0.10 0.29 0.28 0.19 nan nan nan nan nan nan nan 0.75 2.41 2.98 1.91
1.26 1.39 1.38 1.28 1.19 1.14 0.82 0.96 1.19 0.64 0.65 0.54 0.48 0.53 0.51 0.60 nan nan nan 0.41 0.41 0.66 0.70 0.74 0.60 0.33 nan nan 0.47 0.44 0.78 0.70 0.40 0.65 0.40 0.30 nan nan nan 0.30 0.79 2.20 1.59
0.60 0.75 0.86 0.75 0.76 0.65 0.46 0.37 0.38 0.43 0.47 0.49 0.42 0.43 0.55 0.46 0.66 nan nan 0.58 0.94 0.78 0.77 0.89 0.81 nan nan nan nan 0.66 0.58 0.64 0.86 0.77 0.97 1.16 0.79 0.53 0.69 0.60 0.51 0.87 1.68
0.27 0.31 0.38 0.42 0.32 0.33 0.28 0.15 0.30 0.18 0.16 0.31 0.32 0.55 0.51 0.35 nan nan nan nan nan 0.65 0.57 0.68 0.80 nan nan nan 0.73 nan nan 0.70 1.36 1.39 1.18 1.04 1.02 0.89 0.77 0.88 0.72 0.73 0.75
0.32 0.62 0.53 0.41 0.34 0.28 0.27 0.12 0.43 0.10 0.33 0.11 0.43 0.45 0.40 0.46 0.41 nan nan nan nan 0.40 0.35 0.45 nan nan nan nan nan nan 0.44 1.09 1.32 1.57 1.08 0.81 0.60 0.52 0.47 0.68 0.50 0.44 0.42
0.75 0.36 0.22 0.27 0.19 0.18 0.38 0.41 0.59 0.52 0.47 0.51 0.62 0.61 0.45 0.46 0.32 0.34 0.55 0.32 0.25 0.55 nan 0.49 nan 0.37 nan nan 0.52 0.52 0.67 0.77 0.77 0.92 0.93 0.67 0.65 0.91 0.91 0.65 0.84 0.71 1.20
0.52 0.21 0.21 0.38 0.42 0.26 0.27 0.46 0.39 0.15 0.44 1.01 1.32 0.94 1.23 1.18 0.68 0.28 0.98 1.13 1.01 1.03 1.20 1.48 1.24 0.90 0.90 0.80 0.96 0.97 0.92 0.90 1.02 1.03 1.08 1.08 1.10 1.03 0.93 0.73 0.79 1.04 1.31
0.29 0.48 0.47 0.49 0.42 0.37 0.39 0.43 nan nan nan nan nan 0.74 1.17 nan nan nan nan nan nan nan 2.71 2.53 1.20 0.95 0.85 0.90 1.15 1.07 1.04 1.08 0.97 1.14 1.30 1.25 1.33 1.16 1.12 1.26 1.18 1.30 1.37
0.69 0.45 0.61 0.54 0.50 0.55 0.59 0.66 0.87 0.61 nan nan nan nan nan nan nan nan nan nan nan nan 4.03 1.90 1.57 1.12 1.13 1.07 1.15 1.07 1.19 1.02 0.74 1.19 1.13 1.23 1.36 1.47 1.62 1.40 1.21 1.12 1.59
0.66 0.68 0.67 0.64 0.62 0.69 0.74 0.77 0.84 1.04 1.20 0.96 nan nan nan nan nan nan nan nan 3.79 nan 2.80 2.95 2.53 2.06 1.69 1.55 1.32 1.33 1.33 1.28 1.20 1.20 1.25 1.71 2.02 2.16 2.09 2.05 1.56 1.95 1.84
0.76 0.63 0.71 0.70 0.67 0.72 0.81 0.73 0.79 0.84 0.88 1.14 1.17 1.24 1.03 nan nan nan nan 2.39 3.15 2.73 2.68 2.74 2.28 2.20 1.81 1.94 1.84 2.06 1.77 1.88 1.75 2.29 2.33 2.53 2.34 2.50 2.52 1.86 1.59 1.43 1.51
0.93 0.95 0.84 1.10 1.02 0.93 0.70 0.91 0.87 0.91 1.05 1.19 1.21 1.09 1.81 2.12 2.79 2.83 2.34 3.30 3.34 2.97 2.51 2.73 2.74 3.08 3.26 3.05 2.95 2.72 2.79 2.98 2.71 2.71 2.67 2.63 2.52 2.72 1.99 2.61 2.31 2.05 2.29
1.45 1.23 1.12 1.22 1.45 1.50 1.53 1.28 1.12 1.51 1.31 1.50 1.22 1.15 nan 2.21 2.30 2.48 2.81 2.66 3.07 3.33 2.74 2.96 3.12 4.08 4.24 4.70 3.94 3.81 3.50 2.27 2.79 3.04 3.21 3.19 3.14 4.04 2.44 1.78 2.47 2.63 2.57
1.70 1.77 1.75 1.90 1.38 1.50 1.76 1.32 1.44 1.47 1.43 1.30 1.09 1.22 nan 1.74 1.91 1.97 2.26 2.88 3.50 3.62 4.09 4.77 4.66 5.05 4.50 4.23 3.82 3.59 3.02 3.42 3.68 3.43 2.79 2.96 3.49 3.11 3.10 2.33 2.43 2.19 2.77
1.49 1.32 1.45 1.47 1.44 1.61 1.67 1.97 1.81 1.78 1.67 1.87 1.70 1.77 1.99 2.45 2.29 2.32 3.22 3.55 2.97 2.85 3.24 3.49 3.31 3.21 3.02 3.37 3.02 2.92 3.09 3.30 3.34 4.41 3.21 3.26 3.19 3.61 3.31 3.05 2.75 3.15 3.00
1.34 1.37 1.36 1.85 1.70 1.50 1.80 1.92 1.68 1.71 1.82 2.00 3.04 2.57 1.75 2.18 3.01 2.31 2.41 2.87 2.45 3.88 2.88 3.07 2.63 2.56 2.73 3.95 4.95 4.85 5.22 5.46 5.22 4.80 4.39 3.19 3.05 2.68 2.81 3.26 2.65 2.57 2.26
1.78 1.58 1.60 1.50 2.25 1.86 1.74 2.12 1.62 2.23 2.58 2.12 2.53 1.95 1.99 1.87 2.02 2.81 2.65 2.28 2.57 2.39 2.12 2.09 2.18 2.24 2.28 2.40 3.21 4.01 4.19 1.70 3.15 1.82 3.98 2.94 3.34 3.32 3.21 2.82 2.65 2.39 2.14
1.46 1.59 1.66 1.71 1.69 1.86 1.96 1.93 2.01 1.65 2.09 2.22 2.10 2.16 1.88 1.88 1.90 2.25 2.11 2.14 1.79 1.89 1.99 2.16 2.17 1.98 1.87 2.03 2.12 1.94 1.62 1.47 3.46 1.61 3.44 2.99 3.12 2.79 2.75 2.78 2.58 2.51 2.09
SL_Ratio
nan nan nan nan nan nan nan nan 2.5 2.5 2.5 2.8 2.5 2.5 2.9 3.2 2.5 3.3 3.1 3.6 3.5 3.3 2.5 4.2 3.8 nan 3.0 2.8 2.8 nan nan 4.2 4.2 3.6 3.3 3.3 3.1 3.4 2.6 3.2 3.1 3.2 3.1
nan nan nan nan nan 3.2 3.0 3.0 3.0 2.9 2.6 2.6 2.5 2.7 2.9 2.9 3.1 3.2 3.3 3.0 3.4 3.3 3.1 3.5 3.2 nan 3.4 3.6 2.8 3.2 3.5 3.2 3.7 4.8 3.7 3.6 3.7 3.6 3.7 3.5 3.4 3.2 3.3
nan 3.8 3.2 3.1 3.3 3.4 3.4 3.3 2.9 2.9 2.7 2.6 2.8 2.9 3.2 3.1 2.8 2.9 3.1 3.0 3.0 3.1 3.1 3.2 3.1 3.2 3.4 2.9 3.0 3.2 3.1 3.2 3.3 3.8 4.2 3.5 3.7 3.5 3.6 3.3 3.1 3.7 3.4
2.9 3.3 3.4 3.4 3.4 3.4 3.3 3.1 3.1 2.9 3.0 3.0 2.9 2.9 3.0 2.8 2.8 2.6 2.9 2.9 3.1 3.0 2.9 2.8 2.9 3.2 3.3 3.2 3.4 3.4 3.5 3.5 3.4 3.8 4.1 4.3 4.2 3.9 3.7 4.0 4.5 4.4 4.3
3.2 3.5 3.7 3.5 3.4 3.4 3.5 3.5 3.5 3.2 3.1 3.3 3.4 3.7 3.5 3.4 3.2 2.9 2.8 3.3 3.5 3.5 3.5 3.2 3.0 3.1 nan nan 3.3 3.4 3.6 3.8 3.8 4.2 4.7 4.9 5.2 5.3 5.2 3.9 5.0 5.3 6.0
3.8 4.5 3.9 3.7 3.5 4.0 4.4 5.1 4.8 4.8 4.2 4.3 4.2 4.0 4.1 3.4 nan nan 3.2 3.7 3.6 3.8 3.9 3.6 3.4 3.3 3.2 nan nan nan nan 3.6 4.4 4.1 4.3 4.7 5.5 4.6 4.5 4.7 5.6 5.9 7.0
4.5 4.0 4.0 4.5 4.9 5.1 5.0 4.9 5.3 5.2 4.2 4.7 5.2 4.3 4.2 3.7 nan nan nan 3.8 4.0 4.1 4.1 4.1 4.1 3.7 3.1 3.2 nan nan nan nan nan 3.8 4.7 4.4 6.3 5.1 5.5 7.0 6.6 6.4 6.9
4.5 4.9 4.9 5.1 5.3 5.1 5.5 5.9 4.8 4.4 4.1 4.4 4.2 4.5 4.3 3.0 nan nan nan 4.3 5.3 5.2 4.7 4.8 4.6 4.5 3.8 3.8 3.9 5.2 5.4 4.8 4.2 4.4 4.8 4.7 4.4 4.5 4.8 5.1 7.2 8.6 7.0
5.2 5.4 5.5 5.6 5.6 6.0 6.6 6.2 5.6 5.5 5.4 5.5 4.7 4.7 4.6 4.2 nan nan 5.0 5.1 5.4 5.0 4.8 3.9 4.3 4.4 nan nan 5.4 5.9 5.7 5.6 nan nan nan nan nan nan nan 5.2 5.1 5.7 6.0
5.9 5.8 5.8 6.0 6.1 7.2 6.8 7.0 5.8 5.3 5.5 4.9 5.8 5.6 3.6 4.7 nan nan nan 4.6 5.3 5.2 5.8 5.3 3.2 3.8 nan nan 5.5 6.0 6.4 6.3 6.3 5.3 6.1 5.8 nan nan nan 6.4 5.4 6.1 6.5
6.2 6.4 6.6 6.6 6.6 6.8 6.4 6.1 6.7 6.7 6.2 6.4 7.0 6.4 6.5 5.0 5.7 nan nan 5.2 5.2 5.7 5.8 5.8 5.5 nan nan nan nan 6.4 7.6 7.2 7.4 7.2 6.9 6.2 6.4 6.8 6.5 7.1 7.4 6.5 6.8
6.6 6.9 6.9 6.4 6.5 6.3 5.3 6.0 6.0 6.5 6.4 7.7 7.3 5.9 5.6 7.2 nan nan nan nan nan 5.7 6.6 6.1 5.9 nan nan nan 4.8 nan nan 4.3 5.4 5.3 5.5 6.5 8.2 8.2 8.3 8.6 9.7 8.8 8.1
5.7 5.7 5.7 5.7 5.5 5.9 4.4 4.8 3.9 3.9 4.2 5.6 5.1 5.4 5.4 5.7 4.9 nan nan nan nan 4.7 5.0 5.8 nan nan nan nan nan nan 3.0 5.6 5.4 5.5 6.8 8.1 8.4 8.5 10.2 9.4 10.3 10.2 10.3
4.9 6.1 6.3 5.6 4.7 5.2 4.0 3.8 3.8 4.4 4.8 4.8 4.9 5.0 4.8 4.9 4.7 4.1 3.9 3.6 3.5 4.0 nan 4.5 nan 4.9 nan nan 4.2 5.1 5.1 5.8 5.9 6.5 7.4 8.0 8.0 8.4 8.7 8.7 8.0 8.2 7.8
6.2 7.4 5.6 5.1 5.1 5.4 5.3 4.3 4.4 4.2 4.1 4.4 4.3 4.6 5.1 5.2 5.0 4.4 4.4 4.3 4.1 4.3 4.0 4.7 5.0 5.5 5.8 5.8 5.5 5.8 5.8 6.0 6.3 6.6 7.3 7.7 8.1 8.0 8.0 8.0 8.1 7.5 7.7
8.1 6.8 5.9 5.7 5.6 5.8 5.8 5.6 nan nan nan nan nan 4.2 3.9 nan nan nan nan nan nan nan 4.3 4.9 5.9 6.0 6.7 6.6 6.7 7.4 7.5 6.7 7.5 7.5 7.6 7.5 7.9 8.3 8.3 7.6 7.5 7.5 8.0
7.2 8.6 7.4 7.5 7.4 6.8 6.4 6.1 7.5 5.7 nan nan nan nan nan nan nan nan nan nan nan nan 4.6 5.5 6.1 6.7 6.9 7.4 7.6 7.7 8.4 8.2 9.4 8.0 8.3 8.1 8.0 7.7 7.4 7.8 7.9 7.9 7.4
7.6 3.0 6.5 6.7 6.4 6.4 6.2 6.1 5.8 6.4 7.0 6.9 nan nan nan nan nan nan nan nan 4.9 nan 4.8 5.5 6.3 6.7 7.5 7.6 8.0 8.3 8.5 8.6 8.6 8.1 8.0 7.3 7.1 7.1 7.4 7.2 7.5 7.2 7.4
8.3 7.8 7.6 7.3 7.1 6.7 6.8 7.0 6.6 7.2 7.5 7.5 7.9 7.3 4.1 nan nan nan nan 5.2 5.6 5.9 6.0 6.0 6.1 6.7 7.5 7.3 7.4 7.2 7.6 7.8 7.8 7.1 6.9 6.8 6.9 6.9 6.9 7.3 7.8 5.6 5.8
8.9 3.9 6.6 7.8 8.1 8.2 8.7 8.9 9.4 9.4 9.5 9.2 9.1 9.1 6.8 5.9 5.8 5.6 5.6 5.1 5.5 5.8 6.2 6.3 6.3 6.2 6.3 6.5 6.5 6.7 6.8 6.8 7.0 6.8 6.8 6.8 6.8 6.6 7.8 7.0 7.2 7.8 7.2
8.7 9.2 3.0 9.5 8.9 8.8 8.8 9.3 9.9 9.1 9.5 9.0 9.4 9.3 nan 7.4 7.8 7.0 6.5 7.1 6.2 6.2 6.7 6.6 6.5 6.1 6.0 5.8 6.3 6.4 6.6 7.5 6.9 6.8 6.6 6.6 6.7 6.8 6.9 7.8 7.3 7.1 7.2
8.9 8.8 8.9 8.8 9.8 9.6 9.0 10.0 9.7 9.6 9.8 10.1 10.5 9.6 nan 9.1 8.8 8.7 8.5 7.5 7.0 6.9 6.4 6.4 6.4 6.2 6.4 6.6 6.9 7.0 7.4 7.0 6.7 6.9 7.4 7.3 7.0 7.4 7.1 8.0 7.8 8.1 7.5
9.7 10.5 10.2 10.2 10.2 4.5 9.7 9.0 9.4 9.4 9.8 9.4 9.6 9.9 9.6 8.5 8.9 9.2 7.9 7.7 8.3 8.5 8.1 7.9 7.9 8.2 8.2 7.8 8.0 8.0 8.1 7.7 7.5 6.8 8.1 7.9 8.0 7.5 7.6 8.0 8.1 8.1 8.0
10.5 10.3 10.4 9.4 9.9 10.6 9.8 9.6 10.2 4.2 9.8 9.5 8.2 8.8 10.4 9.5 8.4 9.6 9.3 8.7 9.4 7.8 8.8 8.6 9.2 9.2 8.8 7.4 6.7 6.7 6.6 6.4 6.6 6.8 7.1 8.5 8.4 8.1 8.9 8.3 8.8 8.7 9.5
9.9 10.6 10.5 10.7 9.0 9.9 10.2 9.5 10.8 9.5 8.9 9.7 8.9 10.1 10.2 10.5 10.0 8.7 9.0 9.9 9.5 9.8 10.3 10.3 10.0 9.8 9.6 9.4 8.4 7.4 6.6 3.0 6.3 3.0 7.8 9.0 8.5 8.3 8.6 9.1 9.1 9.7 9.8
10.9 10.7 10.6 10.4 10.6 10.0 9.7 9.8 9.6 10.6 9.6 9.4 9.7 9.7 10.5 10.6 10.4 9.5 10.0 9.9 10.9 10.7 10.5 10.1 10.1 10.4 10.6 10.0 9.7 4.0 3.0 3.0 7.5 3.0 8.9 9.8 9.2 9.5 9.6 9.5 9.6 9.7 10.2